Weather in Uralsk

Russia / Orenburg Oblast     51°35′19″N   58°38′52″E
temp.,
°C
wind,
m/s
gust,
m/s
humid.,
%
clouds,
%
prec.,
mm/h
press.,
hPa
HPBL,
m
7 march, sun
sun723:00−6s1295100 0.0 101321
02:00−5e3497100 0.9 1010142
05:00−5ene4697100 2.5 1008183
08:00−2wsw2999100 2.1 1004390
11:00−5nnw4597100 4.9 1003180
14:00−5nnw6995100 2.3 1004465
17:00−5nnw6993100 2.8 1006739
20:00−8nw61379100 0.3 1010379
8 march, mon
mon823:00−14nw5118450 0.3 1014186
02:00−16wnw47880 0.0 101690
05:00−17wsw44910 0.0 101755
08:00−16sw4109068 0.0 1017252
11:00−10sw7148684 0.0 1016535
14:00−6sw101686100 0.0 10151096
17:00−5sw101787100 0.1 10141132
20:00−5sw81691100 0.1 1014847
9 march, tue
tue923:00−6sw71687100 0.2 1015664
02:00−8sw6158567 0.0 1014441
05:00−9ssw5138855 0.0 1014343
08:00−8ssw6148799 0.0 1014358
11:00−6ssw6128599 0.0 1013496
14:00−3sw71385100 0.0 1012673
17:00−3ssw61187100 0.0 1011703
20:00−4ssw4995100 0.1 1010264
10 march, wed
wed1023:00−5s4895100 0.3 1008272
02:00−5s4996100 0.4 1005415
05:00−5s51394100 1.0 1004586
08:00−10w7138981 0.1 1004347
11:00−9w8148341 0.1 1006635
14:00−9w9138333 0.0 1009684
17:00−10w7128417 0.0 1011653
20:00−14w5118951 0.0 1013239
11 march, thu
thu1123:00−17w479226 0.0 1015114
02:00−19w489474 0.0 1015126
05:00−21w479437 0.0 101796
08:00−22w46940 0.0 101882
11:00−18wnw57870 0.0 1020333
14:00−16w57840 0.0 1021493
17:00−16w698511 0.0 1022509
20:00−22w510890 0.0 1025183